Montreal, Quebec

7:13 AM EDT on May 20, 2018 (GMT -0400)
Montreal-Pierre Elliott Trudeau Int'l Airport

Weather History for CYUL - January, 2013

Change the Weather History Date:

Wednesday, January 23, 2013

  Actual Average Record
Temperature  
Mean Temperature -12 °F -  
Max Temperature -8 °F 24 °F 44 °F (1999)
Min Temperature -16 °F 7 °F -16 °F (2013)
Degree Days  
Heating Degree Days 77    
Moisture  
Dew Point -26 °F    
Average Humidity 47    
Maximum Humidity 59    
Minimum Humidity 27    
Precipitation  
Precipitation 0.00 in 0.08 in - ()
Sea Level Pressure  
Sea Level Pressure 30.22 in    
Wind  
Wind Speed 11 mph ()    
Max Wind Speed 18 mph    
Max Gust Speed 21 mph    
Visibility 15.0 miles    
Events      
Averages and records for this station are not official NWS values.
T = Trace of Precipitation, MM = Missing Value Source: Averaged Metar Reports

Daily Weather History Graph

Daily Weather History Graph

Search for Another Location

Airport or City:

Astronomy

Jan. 23, 2013 Rise Set
Actual Time 7:25 AM EST 4:49 PM EST
Civil Twilight 6:52 AM EST 5:21 PM EST
Nautical Twilight 6:16 AM EST 5:57 PM EST
Astronomical Twilight 5:41 AM EST 6:32 PM EST
Moon 1:55 PM EST (1/23) 4:36 AM EST (1/23)
Length of Visible Light 10h 28m
Length of Day
9h 24m
Waxing Gibbous, 89% of the Moon is Illuminated
Jan 23
Waxing Gibbous
Jan 26
Full
Feb 3
Last Quarter
Feb 10
New
Feb 17
First Quarter

Hourly Weather History & Observations

Time (EST) Temp. Windchill Dew Point Humidity Pressure Visibility Wind Dir Wind Speed Gust Speed Precip Events Conditions
12:00 AM -7.6 °F -29.1 °F -20.2 °F 54% 30.15 in 15.0 mi West 15.0 mph - N/A   Clear
1:00 AM -10 °F - -22 °F 38% 30.16 in 15 mi West 13.8 mph - -  
1:00 AM -9.4 °F -30.6 °F -22.0 °F 54% 30.16 in 15.0 mi WNW 13.8 mph - N/A   Clear
2:00 AM -11.2 °F -29.0 °F -22.0 °F 59% 30.18 in 15.0 mi West 9.2 mph - N/A   Clear
3:00 AM -11.2 °F -32.1 °F -23.8 °F 54% 30.19 in 15.0 mi West 12.7 mph - N/A   Partly Cloudy
4:00 AM -13.0 °F -33.4 °F -25.6 °F 53% 30.19 in 15.0 mi West 11.5 mph - N/A   Partly Cloudy
5:00 AM -14.8 °F -37.5 °F -27.4 °F 53% 30.20 in 15.0 mi WNW 13.8 mph - N/A   Partly Cloudy
6:00 AM -14.8 °F -32.2 °F -27.4 °F 53% 30.22 in 15.0 mi West 8.1 mph - N/A   Partly Cloudy
7:00 AM -16 °F - -28 °F 36% 30.23 in 15 mi WSW 8.1 mph - -   Scattered Clouds
7:00 AM -16.6 °F -34.4 °F -27.4 °F 58% 30.23 in 15.0 mi WSW 8.1 mph - N/A   Partly Cloudy
8:00 AM -16.6 °F -35.7 °F -29.2 °F 53% 30.25 in 15.0 mi West 9.2 mph - N/A   Partly Cloudy
9:00 AM -16.6 °F -37.9 °F -29.2 °F 53% 30.27 in 15.0 mi West 11.5 mph - N/A   Partly Cloudy
10:00 AM -14.8 °F -38.3 °F -29.2 °F 48% 30.28 in 15.0 mi West 15.0 mph - N/A   Partly Cloudy
11:00 AM -14.8 °F -36.6 °F -27.4 °F 53% 30.27 in 15.0 mi West 12.7 mph - N/A   Partly Cloudy
12:00 PM -11.2 °F -34.4 °F -27.4 °F 45% 30.25 in 15.0 mi WSW 16.1 mph - N/A   Partly Cloudy
1:00 PM -11 °F - -27 °F 27% 30.23 in 15 mi West 18.4 mph - -   Scattered Clouds
1:00 PM -11.2 °F -35.8 °F -27.4 °F 45% 30.23 in 15.0 mi West 18.4 mph - N/A   Partly Cloudy
2:00 PM -9.4 °F -31.4 °F -27.4 °F 41% 30.23 in 15.0 mi WSW 15.0 mph 20.7 mph N/A   Partly Cloudy
3:00 PM -9.4 °F -30.6 °F -25.6 °F 45% 30.23 in 15.0 mi WSW 13.8 mph - N/A   Partly Cloudy
4:00 PM -9.4 °F -30.6 °F -27.4 °F 41% 30.23 in 15.0 mi West 13.8 mph - N/A   Partly Cloudy
5:00 PM -9.4 °F -29.8 °F -25.6 °F 45% 30.23 in 30.0 mi WSW 12.7 mph - N/A   Partly Cloudy
6:00 PM -9.4 °F -27.9 °F -25.6 °F 45% 30.24 in 15.0 mi WSW 10.4 mph - N/A   Partly Cloudy
7:00 PM -10 °F - -25 °F 28% 30.24 in 15 mi WSW 11.5 mph - -   Clear
7:00 PM -9.4 °F -28.9 °F -25.6 °F 45% 30.24 in 15.0 mi WSW 11.5 mph - N/A   Partly Cloudy
8:00 PM -11.2 °F -29.0 °F -25.6 °F 49% 30.24 in 15.0 mi West 9.2 mph - N/A   Clear
9:00 PM -11.2 °F -30.1 °F -25.6 °F 49% 30.23 in 15.0 mi West 10.4 mph - N/A   Clear
10:00 PM -11.2 °F -30.1 °F -23.8 °F 54% 30.22 in 15.0 mi West 10.4 mph - N/A   Clear
11:00 PM -11.2 °F -27.8 °F -25.6 °F 49% 30.22 in 15.0 mi WSW 8.1 mph - N/A   Clear